| time (UTC) | temp F | wind direction | speed knots | gust knots | rain 1hr in | rain 24hr in | rain mn in | humidity % | barometer mb |
| 20260508000005 | 67 | 168 | 0.9 | 3.5 | 0.00 | 0.00 | 0.00 | 63 | 1013.2 |
| 20260507235405 | 67 | 166 | 0.9 | 3.5 | 0.00 | 0.00 | 0.00 | 63 | 1013.3 |
| 20260507234505 | 68 | 164 | 1.7 | 4.3 | 0.00 | 0.00 | 0.00 | 61 | 1013.4 |
| 20260507233605 | 68 | 160 | 1.7 | 4.3 | 0.00 | 0.00 | 0.00 | 59 | 1013.5 |
| 20260507232704 | 68 | 160 | 0.9 | 1.7 | 0.00 | 0.00 | 0.00 | 60 | 1013.2 |
| 20260507231804 | 68 | 160 | 0.9 | 3.5 | 0.00 | 0.00 | 0.00 | 61 | 1013.1 |
| 20260507230904 | 68 | 172 | 0.9 | 1.7 | 0.00 | 0.00 | 0.00 | 61 | 1013.2 |
| 20260507230005 | 68 | 156 | 0.9 | 3.5 | 0.00 | 0.00 | 0.00 | 60 | 1013.5 |
| 20260507225405 | 68 | 149 | 0.9 | 2.6 | 0.00 | 0.00 | 0.00 | 59 | 1013.4 |
| 20260507224505 | 68 | 165 | 0.9 | 3.5 | 0.00 | 0.00 | 0.00 | 58 | 1013.6 |
| 20260507223626 | 68 | 168 | 0.9 | 3.5 | 0.00 | 0.00 | 0.00 | 58 | 1013.4 |
| 20260507222704 | 69 | 158 | 0.9 | 3.5 | 0.00 | 0.00 | 0.00 | 58 | 1013.7 |
| 20260507221804 | 69 | 172 | 1.7 | 3.5 | 0.00 | 0.00 | 0.00 | 58 | 1013.6 |
| 20260507220905 | 69 | 167 | 1.7 | 5.2 | 0.00 | 0.00 | 0.00 | 58 | 1013.9 |
| 20260507220026 | 69 | 164 | 1.7 | 5.2 | 0.00 | 0.00 | 0.00 | 58 | 1013.9 |
| 20260507215405 | 69 | 159 | 1.7 | 4.3 | 0.00 | 0.00 | 0.00 | 58 | 1013.7 |
| 20260507214525 | 70 | 164 | 1.7 | 5.2 | 0.00 | 0.00 | 0.00 | 58 | 1013.7 |
| 20260507213625 | 70 | 153 | 1.7 | 5.2 | 0.00 | 0.00 | 0.00 | 57 | 1014.1 |
| 20260507212704 | 70 | 106 | 0.9 | 3.5 | 0.00 | 0.00 | 0.00 | 58 | 1013.9 |
| 20260507211804 | 70 | 119 | 0.9 | 1.7 | 0.00 | 0.00 | 0.00 | 58 | 1014.1 |
| 20260507210904 | 70 | 132 | 0.9 | 4.3 | 0.00 | 0.00 | 0.00 | 56 | 1014.4 |
| 20260507210005 | 70 | 154 | 0.9 | 4.3 | 0.00 | 0.00 | 0.00 | 56 | 1014.7 |
| 20260507205404 | 70 | 145 | 0.0 | 2.6 | 0.00 | 0.00 | 0.00 | 57 | 1014.7 |
| 20260507204505 | 71 | 61 | 0.0 | 2.6 | 0.00 | 0.00 | 0.00 | 56 | 1014.9 |
| 20260507203604 | 71 | 63 | 0.9 | 4.3 | 0.00 | 0.00 | 0.00 | 57 | 1014.7 |
| 20260507202725 | 71 | 81 | 0.9 | 1.7 | 0.00 | 0.00 | 0.00 | 56 | 1014.8 |
| 20260507201805 | 71 | 54 | 0.9 | 3.5 | 0.00 | 0.00 | 0.00 | 58 | 1014.6 |
| 20260507200905 | 70 | 57 | 1.7 | 7.0 | 0.00 | 0.00 | 0.00 | 59 | 1014.6 |
| 20260507200004 | 70 | 61 | 2.6 | 7.8 | 0.00 | 0.00 | 0.00 | 57 | 1014.7 |
| 20260507195404 | 71 | 53 | 1.7 | 6.1 | 0.00 | 0.00 | 0.00 | 58 | 1014.7 |
| 20260507194504 | 70 | 65 | 1.7 | 5.2 | 0.00 | 0.00 | 0.00 | 58 | 1014.8 |
| 20260507193604 | 70 | 58 | 2.6 | 7.0 | 0.00 | 0.00 | 0.00 | 58 | 1014.9 |
| 20260507192704 | 71 | 76 | 0.9 | 7.0 | 0.00 | 0.00 | 0.00 | 59 | 1015.2 |
| 20260507191826 | 71 | 56 | 1.7 | 5.2 | 0.00 | 0.00 | 0.00 | 59 | 1015.4 |
| 20260507190905 | 70 | 42 | 1.7 | 7.0 | 0.00 | 0.00 | 0.00 | 58 | 1015.8 |
| 20260507190005 | 70 | 54 | 1.7 | 7.0 | 0.00 | 0.00 | 0.00 | 60 | 1016.0 |
| 20260507185405 | 70 | 69 | 0.9 | 7.0 | 0.00 | 0.00 | 0.00 | 60 | 1016.2 |
| 20260507184504 | 70 | 339 | 0.9 | 2.6 | 0.00 | 0.00 | 0.00 | 60 | 1016.3 |
| 20260507183605 | 70 | 37 | 1.7 | 5.2 | 0.00 | 0.00 | 0.00 | 60 | 1016.2 |
| 20260507182704 | 69 | 34 | 4.3 | 10.4 | 0.00 | 0.00 | 0.00 | 61 | 1016.1 |
| 20260507181804 | 69 | 38 | 4.3 | 9.6 | 0.00 | 0.00 | 0.00 | 59 | 1015.9 |
| 20260507180904 | 69 | 55 | 4.3 | 9.6 | 0.00 | 0.00 | 0.00 | 60 | 1015.8 |
| 20260507180004 | 69 | 33 | 5.2 | 12.2 | 0.00 | 0.00 | 0.00 | 59 | 1016.1 |
| 20260507175425 | 69 | 23 | 5.2 | 9.6 | 0.00 | 0.00 | 0.00 | 61 | 1016.1 |
| 20260507174504 | 69 | 25 | 4.3 | 10.4 | 0.00 | 0.00 | 0.00 | 61 | 1016.1 |
| 20260507173625 | 69 | 11 | 5.2 | 9.6 | 0.00 | 0.00 | 0.00 | 62 | 1016.1 |
| 20260507172704 | 70 | 15 | 5.2 | 11.3 | 0.00 | 0.00 | 0.00 | 63 | 1016.5 |
| 20260507171804 | 69 | 29 | 6.1 | 11.3 | 0.00 | 0.00 | 0.00 | 65 | 1016.3 |
| 20260507170904 | 68 | 20 | 6.1 | 12.2 | 0.00 | 0.00 | 0.00 | 64 | 1016.6 |
| 20260507170005 | 68 | 23 | 4.3 | 8.7 | 0.00 | 0.00 | 0.00 | 65 | 1016.7 |
| 20260507165404 | 68 | 24 | 4.3 | 10.4 | 0.00 | 0.00 | 0.00 | 66 | 1016.8 |
| 20260507164504 | 68 | 41 | 4.3 | 9.6 | 0.00 | 0.00 | 0.00 | 66 | 1017.3 |
| 20260507163604 | 67 | 15 | 3.5 | 11.3 | 0.00 | 0.00 | 0.00 | 69 | 1017.4 |
| 20260507162704 | 66 | 30 | 3.5 | 7.8 | 0.00 | 0.00 | 0.00 | 70 | 1017.5 |
| 20260507161826 | 66 | 29 | 3.5 | 8.7 | 0.00 | 0.00 | 0.00 | 71 | 1017.8 |
| 20260507160904 | 65 | 17 | 3.5 | 7.8 | 0.00 | 0.00 | 0.00 | 73 | 1017.7 |
| 20260507160004 | 65 | 25 | 3.5 | 9.6 | 0.00 | 0.00 | 0.00 | 74 | 1017.6 |
| 20260507155404 | 64 | 38 | 3.5 | 7.8 | 0.00 | 0.00 | 0.00 | 75 | 1017.6 |
| 20260507154505 | 63 | 46 | 3.5 | 7.8 | 0.00 | 0.00 | 0.00 | 76 | 1017.6 |
| 20260507153604 | 62 | 30 | 3.5 | 8.7 | 0.00 | 0.00 | 0.00 | 77 | 1017.6 |
| 20260507152705 | 62 | 38 | 4.3 | 9.6 | 0.00 | 0.00 | 0.00 | 78 | 1017.6 |
| 20260507151804 | 61 | 25 | 4.3 | 9.6 | 0.00 | 0.00 | 0.00 | 80 | 1017.8 |
| 20260507150904 | 61 | 33 | 3.5 | 9.6 | 0.00 | 0.01 | 0.00 | 81 | 1018.0 |
| 20260507150005 | 60 | 27 | 3.5 | 7.8 | 0.00 | 0.01 | 0.00 | 82 | 1018.0 |
| 20260507145404 | 60 | 24 | 3.5 | 9.6 | 0.00 | 0.01 | 0.00 | 83 | 1018.0 |
| 20260507144525 | 60 | 13 | 3.5 | 8.7 | 0.00 | 0.01 | 0.00 | 84 | 1018.2 |
| 20260507143604 | 59 | 34 | 2.6 | 7.8 | 0.00 | 0.01 | 0.00 | 85 | 1018.1 |
| 20260507142704 | 58 | 27 | 3.5 | 7.0 | 0.00 | 0.01 | 0.00 | 86 | 1018.2 |
| 20260507141804 | 58 | 23 | 2.6 | 7.0 | 0.00 | 0.01 | 0.00 | 88 | 1018.4 |
| 20260507140904 | 57 | 359 | 3.5 | 6.1 | 0.00 | 0.01 | 0.00 | 89 | 1018.5 |
| 20260507140005 | 57 | 1 | 3.5 | 7.0 | 0.00 | 0.01 | 0.00 | 90 | 1018.2 |
| 20260507135404 | 56 | 360 | 3.5 | 7.0 | 0.00 | 0.01 | 0.00 | 90 | 1018.2 |
| 20260507134505 | 56 | 4 | 1.7 | 4.3 | 0.00 | 0.01 | 0.00 | 91 | 1018.2 |
| 20260507133604 | 56 | 8 | 1.7 | 4.3 | 0.00 | 0.01 | 0.00 | 91 | 1018.3 |
| 20260507132705 | 55 | 12 | 1.7 | 3.5 | 0.00 | 0.01 | 0.00 | 91 | 1018.4 |
| 20260507131804 | 55 | 11 | 1.7 | 3.5 | 0.00 | 0.01 | 0.00 | 91 | 1018.5 |
| 20260507130904 | 54 | 357 | 1.7 | 5.2 | 0.00 | 0.01 | 0.00 | 91 | 1018.5 |
| 20260507130004 | 54 | 350 | 1.7 | 3.5 | 0.00 | 0.01 | 0.00 | 91 | 1018.4 |
| 20260507125404 | 53 | 348 | 0.9 | 3.5 | 0.00 | 0.01 | 0.00 | 91 | 1018.4 |
| 20260507124525 | 53 | 348 | 0.0 | 2.6 | 0.00 | 0.01 | 0.00 | 90 | 1018.4 |
| 20260507123604 | 53 | 348 | 0.9 | 1.7 | 0.00 | 0.01 | 0.00 | 90 | 1018.4 |
| 20260507122705 | 52 | 348 | 0.0 | 1.7 | 0.00 | 0.01 | 0.00 | 90 | 1018.8 |
| 20260507121804 | 52 | 348 | 0.0 | 0.9 | 0.00 | 0.01 | 0.00 | 90 | 1018.8 |
| 20260507120904 | 52 | 0 | 0.0 | 0.0 | 0.00 | 0.01 | 0.00 | 89 | 1018.7 |
| 20260507120005 | 52 | 0 | 0.0 | 0.0 | 0.00 | 0.01 | 0.00 | 89 | 1018.7 |
| 20260507115404 | 52 | 0 | 0.0 | 0.0 | 0.00 | 0.01 | 0.00 | 89 | 1018.8 |
| 20260507114504 | 52 | 0 | 0.0 | 0.0 | 0.00 | 0.01 | 0.00 | 89 | 1018.6 |
| 20260507113604 | 52 | 0 | 0.0 | 0.0 | 0.00 | 0.01 | 0.00 | 89 | 1018.4 |
| 20260507112704 | 52 | 0 | 0.0 | 0.0 | 0.00 | 0.01 | 0.00 | 88 | 1018.4 |
| 20260507111825 | 52 | 0 | 0.0 | 0.0 | 0.00 | 0.01 | 0.00 | 88 | 1018.1 |
| 20260507110904 | 52 | 0 | 0.0 | 0.0 | 0.00 | 0.01 | 0.00 | 88 | 1018.0 |
| 20260507110025 | 52 | 0 | 0.0 | 0.0 | 0.00 | 0.01 | 0.00 | 88 | 1018.0 |
| 20260507105404 | 52 | 0 | 0.0 | 0.0 | 0.00 | 0.01 | 0.00 | 88 | 1017.7 |
| 20260507104505 | 53 | 0 | 0.0 | 0.0 | 0.00 | 0.01 | 0.00 | 88 | 1017.5 |
| 20260507103604 | 53 | 348 | 0.0 | 2.6 | 0.00 | 0.01 | 0.00 | 88 | 1017.1 |
| 20260507102704 | 53 | 353 | 1.7 | 4.3 | 0.00 | 0.01 | 0.00 | 88 | 1017.0 |
| 20260507101804 | 53 | 354 | 0.9 | 2.6 | 0.00 | 0.01 | 0.00 | 88 | 1016.8 |
| 20260507100904 | 53 | 358 | 1.7 | 3.5 | 0.00 | 0.01 | 0.00 | 88 | 1016.7 |
| 20260507100025 | 53 | 344 | 0.9 | 3.5 | 0.00 | 0.01 | 0.00 | 88 | 1016.6 |
| 20260507095404 | 53 | 5 | 1.7 | 5.2 | 0.00 | 0.01 | 0.00 | 88 | 1016.2 |
| 20260507094525 | 54 | 4 | 1.7 | 4.3 | 0.00 | 0.01 | 0.00 | 87 | 1016.0 |
| 20260507093604 | 54 | 9 | 1.7 | 4.3 | 0.00 | 0.01 | 0.00 | 87 | 1016.1 |
| 20260507092704 | 54 | 14 | 1.7 | 4.3 | 0.00 | 0.01 | 0.00 | 87 | 1015.9 |
| 20260507091804 | 54 | 18 | 1.7 | 4.3 | 0.00 | 0.01 | 0.00 | 87 | 1015.7 |
| 20260507090904 | 54 | 28 | 1.7 | 4.3 | 0.00 | 0.01 | 0.00 | 87 | 1015.7 |
| 20260507090005 | 55 | 39 | 0.9 | 3.5 | 0.00 | 0.01 | 0.00 | 86 | 1015.7 |
| 20260507085404 | 55 | 0 | 0.0 | 0.0 | 0.00 | 0.01 | 0.00 | 87 | 1015.9 |
| 20260507084504 | 55 | 0 | 0.0 | 0.0 | 0.00 | 0.01 | 0.00 | 86 | 1016.0 |
| 20260507083604 | 55 | 52 | 1.7 | 3.5 | 0.00 | 0.01 | 0.00 | 86 | 1015.9 |
| 20260507082704 | 55 | 35 | 3.5 | 7.8 | 0.00 | 0.01 | 0.00 | 86 | 1015.6 |
| 20260507081804 | 56 | 24 | 3.5 | 8.7 | 0.00 | 0.01 | 0.00 | 86 | 1015.3 |
| 20260507080904 | 56 | 15 | 2.6 | 6.1 | 0.00 | 0.01 | 0.00 | 86 | 1015.5 |
| 20260507080005 | 56 | 18 | 1.7 | 3.5 | 0.00 | 0.01 | 0.00 | 86 | 1015.7 |
| 20260507075404 | 56 | 19 | 2.6 | 7.0 | 0.00 | 0.01 | 0.00 | 86 | 1015.6 |
| 20260507074504 | 56 | 32 | 2.6 | 6.1 | 0.00 | 0.01 | 0.00 | 85 | 1015.5 |
| 20260507073604 | 56 | 36 | 2.6 | 6.1 | 0.00 | 0.01 | 0.00 | 85 | 1015.4 |
| 20260507072704 | 56 | 47 | 2.6 | 7.8 | 0.00 | 0.01 | 0.00 | 86 | 1015.2 |
| 20260507071825 | 57 | 41 | 2.6 | 5.2 | 0.00 | 0.01 | 0.00 | 85 | 1015.0 |
| 20260507070904 | 57 | 51 | 2.6 | 6.1 | 0.00 | 0.01 | 0.00 | 85 | 1014.8 |
| 20260507070009 | 57 | 51 | 2.6 | 7.0 | 0.00 | 0.01 | 0.00 | 85 | 1014.5 |
| 20260507065404 | 57 | 55 | 3.5 | 7.8 | 0.00 | 0.01 | 0.00 | 85 | 1014.5 |
| 20260507064504 | 58 | 58 | 3.5 | 8.7 | 0.00 | 0.01 | 0.00 | 85 | 1014.6 |
| 20260507063604 | 58 | 56 | 3.5 | 7.8 | 0.00 | 0.01 | 0.00 | 85 | 1014.6 |
| 20260507062704 | 58 | 55 | 3.5 | 7.8 | 0.00 | 0.01 | 0.00 | 85 | 1014.7 |
| 20260507061804 | 58 | 60 | 2.6 | 8.7 | 0.00 | 0.01 | 0.00 | 84 | 1014.8 |
| 20260507060904 | 58 | 58 | 3.5 | 7.8 | 0.00 | 0.01 | 0.00 | 84 | 1014.7 |
| 20260507060004 | 58 | 59 | 4.3 | 9.6 | 0.00 | 0.01 | 0.00 | 84 | 1014.8 |
| 20260507055404 | 58 | 54 | 4.3 | 9.6 | 0.00 | 0.01 | 0.00 | 85 | 1014.8 |
| 20260507054504 | 58 | 52 | 4.3 | 10.4 | 0.00 | 0.01 | 0.00 | 85 | 1014.8 |
| 20260507053604 | 58 | 57 | 3.5 | 7.8 | 0.00 | 0.01 | 0.00 | 86 | 1014.8 |
| 20260507052704 | 58 | 56 | 2.6 | 7.8 | 0.00 | 0.01 | 0.00 | 86 | 1014.8 |
| 20260507051804 | 58 | 60 | 2.6 | 7.8 | 0.00 | 0.01 | 0.00 | 86 | 1014.5 |
| 20260507050904 | 58 | 63 | 3.5 | 8.7 | 0.00 | 0.01 | 0.00 | 86 | 1014.6 |
| 20260507050005 | 58 | 62 | 3.5 | 8.7 | 0.00 | 0.01 | 0.00 | 85 | 1014.8 |
| 20260507045404 | 58 | 60 | 2.6 | 8.7 | 0.00 | 0.01 | 0.01 | 85 | 1014.9 |
| 20260507044504 | 58 | 58 | 2.6 | 7.8 | 0.00 | 0.01 | 0.01 | 85 | 1014.8 |
| 20260507043604 | 58 | 62 | 3.5 | 7.8 | 0.00 | 0.01 | 0.01 | 85 | 1014.9 |
| 20260507042704 | 58 | 64 | 3.5 | 7.8 | 0.00 | 0.01 | 0.01 | 85 | 1015.1 |
| 20260507041804 | 59 | 60 | 3.5 | 8.7 | 0.00 | 0.01 | 0.01 | 85 | 1015.0 |
| 20260507040925 | 59 | 50 | 3.5 | 8.7 | 0.00 | 0.01 | 0.01 | 85 | 1014.9 |
| 20260507040025 | 59 | 55 | 3.5 | 10.4 | 0.00 | 0.01 | 0.01 | 86 | 1015.0 |
| 20260507035404 | 59 | 51 | 3.5 | 7.0 | 0.00 | 0.01 | 0.01 | 86 | 1015.1 |
| 20260507034505 | 59 | 46 | 3.5 | 7.0 | 0.00 | 0.01 | 0.01 | 85 | 1015.1 |
| 20260507033625 | 59 | 45 | 3.5 | 7.0 | 0.00 | 0.01 | 0.01 | 85 | 1015.1 |
| 20260507032726 | 59 | 57 | 2.6 | 7.0 | 0.00 | 0.01 | 0.01 | 85 | 1015.0 |
| 20260507031825 | 59 | 41 | 3.5 | 7.0 | 0.00 | 0.01 | 0.01 | 85 | 1014.9 |
| 20260507030904 | 59 | 46 | 4.3 | 9.6 | 0.00 | 0.01 | 0.01 | 85 | 1014.9 |
| 20260507030025 | 59 | 40 | 4.3 | 9.6 | 0.00 | 0.01 | 0.01 | 85 | 1014.6 |
| 20260507025404 | 59 | 43 | 4.3 | 9.6 | 0.00 | 0.01 | 0.01 | 84 | 1014.4 |
| 20260507024504 | 60 | 48 | 3.5 | 9.6 | 0.00 | 0.01 | 0.01 | 84 | 1014.2 |
| 20260507023625 | 60 | 54 | 4.3 | 10.4 | 0.00 | 0.01 | 0.01 | 84 | 1013.9 |
| 20260507022725 | 60 | 50 | 3.5 | 8.7 | 0.00 | 0.01 | 0.01 | 84 | 1013.8 |
| 20260507021825 | 60 | 53 | 4.3 | 9.6 | 0.00 | 0.01 | 0.01 | 84 | 1013.6 |
| 20260507020904 | 60 | 57 | 2.6 | 6.1 | 0.00 | 0.01 | 0.01 | 85 | 1013.5 |
| 20260507020025 | 60 | 55 | 2.6 | 6.1 | 0.00 | 0.01 | 0.01 | 85 | 1013.3 |
| 20260507015425 | 60 | 52 | 2.6 | 4.3 | 0.00 | 0.01 | 0.01 | 85 | 1013.2 |
| 20260507014525 | 60 | 35 | 1.7 | 5.2 | 0.00 | 0.01 | 0.01 | 84 | 1012.9 |
| 20260507013604 | 60 | 34 | 2.6 | 7.8 | 0.00 | 0.01 | 0.01 | 84 | 1012.8 |
| 20260507012704 | 60 | 30 | 3.5 | 7.8 | 0.00 | 0.01 | 0.01 | 83 | 1012.5 |
| 20260507011804 | 60 | 25 | 3.5 | 7.0 | 0.00 | 0.01 | 0.01 | 83 | 1012.3 |
| 20260507010904 | 60 | 24 | 3.5 | 7.0 | 0.00 | 0.01 | 0.01 | 84 | 1012.1 |
| 20260507010004 | 60 | 26 | 3.5 | 7.8 | 0.00 | 0.01 | 0.01 | 83 | 1012.0 |
| 20260507005404 | 60 | 27 | 3.5 | 7.8 | 0.00 | 0.01 | 0.01 | 83 | 1011.9 |
| 20260507004504 | 60 | 29 | 3.5 | 7.8 | 0.00 | 0.01 | 0.01 | 83 | 1011.7 |
| 20260507003625 | 60 | 35 | 2.6 | 6.1 | 0.00 | 0.01 | 0.01 | 83 | 1011.9 |
| 20260507002705 | 61 | 37 | 2.6 | 5.2 | 0.00 | 0.01 | 0.01 | 82 | 1012.1 |
| 20260507001804 | 61 | 10 | 3.5 | 7.8 | 0.00 | 0.01 | 0.01 | 82 | 1012.0 |
| 20260507000925 | 61 | 4 | 3.5 | 7.8 | 0.00 | 0.01 | 0.01 | 82 | 1011.9 |